This demonstration page uses our WeatherBlox Daily Observations layout. Learn more.

Left ArrowRight Arrow

40.92945, -100.16068

Hourly Observations for February 9, 2020

Temp ( °F °C ) Dew Point ( °F °C ) Humidity (%) Winds ( mph kmh ) Pressure ( in mb ) Visibility ( mi km ) Precip ( " mm )
12:15 am 00:15 Clear 36 2 31 -0.6 83 83 SSE 12 19 29.81 1009 10 16 N/A
12:35 am 00:35 Clear 35 1.4 31 -0.8 85 85 SSE 7 11 29.82 1010 10 16 N/A
12:55 am 00:55 Clear 35 1.6 30 -0.9 84 84 SE 3 6 29.82 1010 10 16 N/A
1:15 am 01:15 Clear 33 0.6 30 -1.3 87 87 N N/A 29.83 1010 10 16 N/A
1:35 am 01:35 Clear 33 0.4 30 -1.2 89 89 N N/A 29.82 1010 10 16 N/A
1:55 am 01:55 Clear 29 -1.6 28 -2.5 94 94 N N/A 29.83 1010 10 16 N/A
2:15 am 02:15 Clear 30 -1.3 28 -2 95 95 N N/A 29.84 1010 10 16 N/A
2:35 am 02:35 Clear 28 -2.2 27 -3 94 94 NW 7 11 29.88 1012 10 16 N/A
2:55 am 02:55 Clear 29 -1.7 28 -2.5 94 94 N 6 9 29.87 1012 10 16 N/A
3:15 am 03:15 Clear 27 -2.6 26 -3.2 96 96 N 7 11 29.89 1012 10 16 N/A
3:35 am 03:35 Clear 27 -2.6 26 -3.2 96 96 NNW 7 11 29.90 1013 10 16 N/A
3:55 am 03:55 Clear 28 -2.5 26 -3.2 95 95 WNW 6 9 29.90 1013 10 16 N/A
4:15 am 04:15 Clear 31 -0.3 29 -1.6 91 91 WNW 10 17 29.90 1013 10 16 N/A
4:35 am 04:35 Clear 32 -0.1 30 -1.2 92 92 NW 13 20 29.92 1013 10 16 N/A
4:55 am 04:55 Partly Cloudy 34 1.1 31 -0.5 89 89 NNW 13 20 29.91 1013 10 16 N/A
5:15 am 05:15 Mostly Cloudy 34 1.2 31 -0.5 89 89 NNW 14 22 29.91 1013 10 16 N/A
5:35 am 05:35 Cloudy 35 1.5 31 -0.5 87 87 NW 17 28 29.93 1014 10 16 N/A
5:55 am 05:55 Cloudy 35 1.4 30 -1.3 82 82 NNW 23 37 29.94 1014 10 16 N/A
6:15 am 06:15 Mostly Cloudy 32 0.1 26 -3.1 79 79 NNW 26 43 29.97 1015 10 16 N/A
6:35 am 06:35 Cloudy 31 -0.4 26 -3.4 80 80 NNW 22 35 30.00 1016 10 16 N/A
6:55 am 06:55 Cloudy 30 -1 25 -3.9 81 81 NNW 24 39 30.03 1017 10 16 N/A
7:15 am 07:15 Cloudy 30 -1.1 25 -4 81 81 N 24 39 30.03 1017 10 16 N/A
7:35 am 07:35 Cloudy 30 -1 25 -4.1 80 80 N 25 41 30.06 1018 10 16 N/A
7:55 am 07:55 Cloudy 30 -1 24 -4.3 79 79 NNW 29 46 30.09 1019 10 16 N/A
8:15 am 08:15 Cloudy 30 -1.3 24 -4.7 78 78 N 29 46 30.10 1019 10 16 N/A
8:35 am 08:35 Cloudy 29 -1.5 24 -4.7 79 79 N 26 43 30.11 1020 10 16 N/A
8:55 am 08:55 Cloudy 30 -1.3 24 -4.7 78 78 N 22 35 30.12 1020 10 16 N/A
9:15 am 09:15 Cloudy 30 -1.3 24 -4.7 78 78 N 24 39 30.15 1021 10 16 N/A
9:35 am 09:35 Cloudy 30 -0.9 24 -4.6 76 76 N 23 37 30.17 1022 10 16 N/A
9:55 am 09:55 Cloudy 31 -0.5 24 -4.5 75 75 N 21 33 30.18 1022 10 16 N/A
10:15 am 10:15 Cloudy 31 -0.3 23 -4.8 72 72 N 29 46 30.20 1023 10 16 N/A
10:35 am 10:35 Cloudy 31 -0.5 23 -4.9 72 72 N 29 46 30.21 1023 10 16 N/A
10:55 am 10:55 Cloudy 31 -0.7 23 -5 73 73 N 24 39 30.21 1023 10 16 N/A
11:15 am 11:15 Cloudy 31 -0.5 23 -5 72 72 N 26 43 30.22 1023 10 16 N/A
11:35 am 11:35 Cloudy 31 -0.4 23 -5.2 70 70 N 24 39 30.23 1024 10 16 N/A
11:55 am 11:55 Cloudy 31 -0.4 23 -5.1 71 71 N 26 43 30.25 1024 10 16 N/A
12:15 pm 12:15 Cloudy 31 -0.6 22 -5.3 71 71 N 24 39 30.25 1024 10 16 N/A
12:35 pm 12:35 Cloudy 32 undefined 23 -5.1 69 69 N 25 41 30.25 1024 10 16 N/A
12:55 pm 12:55 Cloudy 32 undefined 22 -5.3 68 68 N 24 39 30.25 1024 10 16 N/A
1:15 pm 13:15 Cloudy 32 -0.1 22 -5.5 67 67 N 24 39 30.25 1024 10 16 N/A
1:35 pm 13:35 Cloudy 32 0.2 22 -5.5 66 66 N 20 31 30.24 1024 10 16 N/A
1:55 pm 13:55 Cloudy 32 undefined 21 -5.9 65 65 N 18 30 30.24 1024 10 16 N/A
2:15 pm 14:15 Mostly Cloudy 33 0.6 23 -5.2 65 65 N 21 33 30.22 1023 10 16 N/A
2:35 pm 14:35 Sunny 33 0.8 22 -5.5 63 63 N 20 31 30.22 1023 10 16 N/A
2:55 pm 14:55 Sunny 33 0.7 21 -5.9 62 62 N 17 28 30.22 1023 10 16 N/A
3:15 pm 15:15 Sunny 33 0.5 21 -6 62 62 N 15 24 30.23 1024 10 16 N/A
3:35 pm 15:35 Sunny 33 0.8 21 -6.2 60 60 N 17 28 30.22 1023 10 16 N/A
3:55 pm 15:55 Sunny 33 0.6 20 -6.6 59 59 N 18 30 30.23 1024 10 16 N/A
4:15 pm 16:15 Sunny 33 0.6 20 -6.4 60 60 N 16 26 30.22 1023 10 16 N/A
4:35 pm 16:35 Sunny 33 0.3 20 -6.5 61 61 N 15 24 30.23 1024 10 16 N/A
4:55 pm 16:55 Sunny 33 0.3 21 -6.3 62 62 N 14 22 30.23 1024 10 16 N/A
5:15 pm 17:15 Sunny 32 0.1 21 -6.1 63 63 N 10 17 30.24 1024 10 16 N/A
5:35 pm 17:35 Sunny 32 undefined 21 -6.3 63 63 N 13 20 30.25 1024 10 16 N/A
5:55 pm 17:55 Sunny 32 -0.2 21 -6.3 64 64 N 9 15 30.25 1024 10 16 N/A
6:15 pm 18:15 Clear 31 -0.8 21 -6 68 68 N 6 9 30.27 1025 10 16 N/A
6:35 pm 18:35 Partly Cloudy 29 -1.9 21 -6.1 73 73 N N/A 30.29 1026 10 16 N/A
6:55 pm 18:55 Clear 29 -1.9 22 -5.8 75 75 N N/A 30.30 1026 10 16 N/A
7:15 pm 19:15 Clear 28 -2.4 22 -5.5 80 80 N N/A 30.30 1026 10 16 N/A
7:35 pm 19:35 Clear 28 -2.4 21 -6.3 75 75 E 3 6 30.29 1026 10 16 N/A
7:55 pm 19:55 Clear 27 -2.8 21 -6.3 77 77 N N/A 30.30 1026 10 16 N/A
8:15 pm 20:15 Clear 24 -4.6 20 -6.9 84 84 SSE 3 6 30.31 1027 10 16 N/A
8:35 pm 20:35 Clear 24 -4.4 20 -6.5 85 85 S 6 9 30.31 1026 10 16 N/A
8:55 pm 20:55 Clear 24 -4.5 20 -6.7 85 85 S 5 7 30.31 1027 10 16 N/A
9:15 pm 21:15 Clear 24 -4.5 20 -6.7 85 85 S 5 7 30.31 1027 10 16 N/A
9:35 pm 21:35 Clear 23 -5.2 20 -6.9 88 88 N N/A 30.30 1026 10 16 N/A
9:55 pm 21:55 Clear 23 -5 19 -7 86 86 N N/A 30.30 1026 10 16 N/A
10:15 pm 22:15 Clear 23 -5 19 -7 86 86 N N/A 30.30 1026 10 16 N/A
10:35 pm 22:35 Clear 22 -5.4 20 -6.8 90 90 N N/A 30.29 1026 10 16 N/A
10:55 pm 22:55 Partly Cloudy 23 -5.1 20 -6.6 89 89 SW 5 7 30.30 1026 10 16 N/A
11:15 pm 23:15 Partly Cloudy 23 -5.2 19 -7 87 87 SSW 5 7 30.30 1026 10 16 N/A
11:35 pm 23:35 Partly Cloudy 22 -5.4 19 -7 89 89 SSW 3 6 30.29 1026 10 16 N/A
11:55 pm 23:55 Partly Cloudy 22 -5.5 19 -7.5 86 86 S 3 6 30.28 1026 10 16 N/A

Powered by AerisWeather